User: anonymous   Login
Location: Adamstown South Public School
(32.9318°S, 151.7012°E)
Time: 12:39:49
(UTC+00:00)
Language:

AQUARIUS - Orbit

View from above orbital plane
View from above orbital plane
View from above satellite
View from above satellite

Ground track
Ground track

The orbit data is extracted from the following two-line orbital elements,

1 37673U 11024A   21125.80564285  .00000116  00000-0  25665-4 0  9999
2 37673  98.0072 135.0055 0001487  59.7876 112.9002 14.73096601532298
Epoch (UTC): 05 May 2021 19:20:07
Eccentricity: 0.0001487
inclination: 98.0072°
perigee height: 650 km
apogee height: 652 km
right ascension of ascending node: 135.0055°
argument of perigee: 59.7876°
revolutions per day: 14.73096601
mean anomaly at epoch: 112.9002°
orbit number at epoch: 53229

The dashed part of the orbit path shows where the satellite is in the earth's shadow,  

DLR